Hourly Weather Rudnytsya

Today, 16 April, Friday

Time Temperature Precipitation Wind Pressure Humidity
00:00 +3°C° 0 mm 5 mps 732 mmHg 87%
01:00 +3°C° 0 mm 4 mps 732 mmHg 88%
02:00 +3°C° 0 mm 4 mps 732 mmHg 88%
03:00 +3°C° 0.2 mm 4 mps 732 mmHg 89%
04:00 +1°C° 0.2 mm 4 mps 732 mmHg 91%
05:00 +1°C° 0.2 mm 4 mps 732 mmHg 92%
06:00 +1°C° 0.4 mm 5 mps 732 mmHg 93%
07:00 +1°C° 0.4 mm 5 mps 733 mmHg 95%
08:00 0°C° 0.4 mm 5 mps 733 mmHg 96%
09:00 +1°C° 0.2 mm 5 mps 733 mmHg 94%
10:00 +1°C° 0.2 mm 5 mps 733 mmHg 92%
11:00 +1°C° 0.2 mm 5 mps 733 mmHg 90%
12:00 +2°C° 0.1 mm 6 mps 733 mmHg 85%
13:00 +3°C° 0.1 mm 6 mps 733 mmHg 80%
14:00 +4°C° 0.1 mm 6 mps 734 mmHg 75%
15:00 +4°C° 0 mm 6 mps 734 mmHg 74%
16:00 +4°C° 0 mm 6 mps 734 mmHg 73%
17:00 +5°C° 0 mm 5 mps 734 mmHg 72%
18:00 +3°C° 0 mm 5 mps 734 mmHg 76%
19:00 +4°C° 0 mm 4 mps 735 mmHg 79%
20:00 +3°C° 0 mm 3 mps 735 mmHg 82%
21:00 +2°C° 0 mm 3 mps 735 mmHg 83%
22:00 +3°C° 0 mm 2 mps 735 mmHg 84%
23:00 +4°C° 0 mm 1 mps 735 mmHg 85%

Tomorrow, 17 April, Saturday

Time Temperature Precipitation Wind Pressure Humidity
00:00 +3°C° 0 mm 1 mps 736 mmHg 86%
01:00 +3°C° 0 mm 1 mps 736 mmHg 87%
02:00 +3°C° 0 mm 1 mps 736 mmHg 89%
03:00 +3°C° 0 mm 1 mps 736 mmHg 89%
04:00 +3°C° 0 mm 1 mps 736 mmHg 90%
05:00 +3°C° 0 mm 1 mps 736 mmHg 91%
06:00 +4°C° 0 mm 1 mps 736 mmHg 87%
07:00 +5°C° 0 mm 1 mps 737 mmHg 83%
08:00 +5°C° 0 mm 2 mps 737 mmHg 79%
09:00 +7°C° 0 mm 2 mps 737 mmHg 72%
10:00 +8°C° 0 mm 2 mps 737 mmHg 65%
11:00 +10°C° 0 mm 3 mps 737 mmHg 58%
12:00 +10°C° 0 mm 3 mps 737 mmHg 57%
13:00 +10°C° 0 mm 2 mps 737 mmHg 55%
14:00 +12°C° 0 mm 2 mps 737 mmHg 54%
15:00 +12°C° 0 mm 2 mps 737 mmHg 55%
16:00 +12°C° 0 mm 1 mps 737 mmHg 56%
17:00 +12°C° 0 mm 1 mps 737 mmHg 57%
18:00 +11°C° 0 mm 1 mps 737 mmHg 62%
19:00 +9°C° 0 mm 2 mps 737 mmHg 67%
20:00 +8°C° 0 mm 2 mps 737 mmHg 72%
21:00 +7°C° 0 mm 3 mps 737 mmHg 76%
22:00 +5°C° 0 mm 3 mps 736 mmHg 79%
23:00 +5°C° 0 mm 3 mps 736 mmHg 83%

Day after tomorrow, 18 April, Sunday

Time Temperature Precipitation Wind Pressure Humidity
00:00 +4°C° 0 mm 3 mps 736 mmHg 85%
01:00 +5°C° 0 mm 2 mps 736 mmHg 86%
02:00 +5°C° 0 mm 2 mps 736 mmHg 87%
03:00 +4°C° 0 mm 2 mps 736 mmHg 87%
04:00 +4°C° 0 mm 2 mps 736 mmHg 87%
05:00 +5°C° 0 mm 1 mps 736 mmHg 87%
06:00 +6°C° 0 mm 1 mps 736 mmHg 82%
07:00 +7°C° 0 mm 1 mps 736 mmHg 77%
08:00 +8°C° 0 mm 1 mps 736 mmHg 72%
09:00 +10°C° 0 mm 1 mps 736 mmHg 65%
10:00 +10°C° 0 mm 2 mps 736 mmHg 58%
11:00 +13°C° 0 mm 2 mps 736 mmHg 51%
12:00 +13°C° 0 mm 2 mps 735 mmHg 48%
13:00 +13°C° 0 mm 2 mps 735 mmHg 46%
14:00 +14°C° 0 mm 2 mps 735 mmHg 44%
15:00 +14°C° 0 mm 1 mps 735 mmHg 44%
16:00 +14°C° 0 mm 1 mps 735 mmHg 45%
17:00 +14°C° 0 mm 1 mps 734 mmHg 46%
18:00 +13°C° 0 mm 1 mps 734 mmHg 50%
19:00 +12°C° 0 mm 1 mps 734 mmHg 54%
20:00 +11°C° 0 mm 1 mps 735 mmHg 59%
21:00 +11°C° 0 mm 1 mps 735 mmHg 63%
22:00 +10°C° 0 mm 1 mps 734 mmHg 67%
23:00 +10°C° 0 mm 1 mps 734 mmHg 72%

19 April, Monday

Time Temperature Precipitation Wind Pressure Humidity
00:00 +9°C° 0.1 mm 1 mps 734 mmHg 74%
01:00 +9°C° 0.1 mm 1 mps 734 mmHg 77%
02:00 +9°C° 0.1 mm 1 mps 734 mmHg 80%
03:00 +8°C° 0.2 mm 1 mps 734 mmHg 82%
04:00 +8°C° 0.2 mm 1 mps 734 mmHg 84%
05:00 +8°C° 0.2 mm 1 mps 733 mmHg 86%
06:00 +8°C° 0.2 mm 1 mps 733 mmHg 85%
07:00 +7°C° 0.2 mm 2 mps 733 mmHg 85%
08:00 +8°C° 0.2 mm 2 mps 733 mmHg 84%
09:00 +8°C° 0.1 mm 2 mps 733 mmHg 81%
10:00 +8°C° 0.1 mm 2 mps 732 mmHg 77%
11:00 +9°C° 0.1 mm 2 mps 732 mmHg 74%
12:00 +10°C° 0.1 mm 3 mps 731 mmHg 70%
13:00 +11°C° 0.1 mm 3 mps 731 mmHg 67%
14:00 +11°C° 0.1 mm 3 mps 730 mmHg 63%
15:00 +11°C° 0.1 mm 3 mps 730 mmHg 64%
16:00 +11°C° 0.1 mm 4 mps 729 mmHg 66%
17:00 +11°C° 0.1 mm 4 mps 729 mmHg 68%
18:00 +10°C° 0.1 mm 4 mps 728 mmHg 72%
19:00 +8°C° 0.1 mm 4 mps 728 mmHg 76%
20:00 +7°C° 0.1 mm 4 mps 727 mmHg 80%
21:00 +7°C° 0 mm 5 mps 727 mmHg 82%
22:00 +7°C° 0 mm 5 mps 726 mmHg 84%
23:00 +5°C° 0 mm 6 mps 726 mmHg 86%

20 April, Tuesday

Time Temperature Precipitation Wind Pressure Humidity
00:00 +5°C° 0 mm 6 mps 725 mmHg 87%
01:00 +5°C° 0 mm 7 mps 724 mmHg 87%
02:00 +4°C° 0 mm 7 mps 724 mmHg 88%
03:00 +4°C° 0.1 mm 8 mps 723 mmHg 88%
04:00 +4°C° 0.1 mm 8 mps 723 mmHg 88%
05:00 +4°C° 0.1 mm 8 mps 722 mmHg 88%
06:00 +3°C° 0 mm 9 mps 722 mmHg 85%
07:00 +3°C° 0 mm 9 mps 723 mmHg 83%
08:00 +3°C° 0 mm 9 mps 723 mmHg 80%
09:00 +5°C° 0 mm 10 mps 723 mmHg 74%
10:00 +6°C° 0 mm 10 mps 723 mmHg 68%
11:00 +8°C° 0 mm 11 mps 723 mmHg 61%
12:00 +8°C° 0 mm 10 mps 723 mmHg 59%
13:00 +8°C° 0 mm 10 mps 724 mmHg 57%
14:00 +9°C° 0 mm 10 mps 724 mmHg 54%
15:00 +8°C° 0 mm 9 mps 725 mmHg 57%
16:00 +9°C° 0 mm 8 mps 725 mmHg 59%
17:00 +8°C° 0 mm 7 mps 726 mmHg 62%
18:00 +7°C° 0 mm 6 mps 726 mmHg 65%
19:00 +7°C° 0 mm 6 mps 726 mmHg 68%
20:00 +6°C° 0 mm 5 mps 727 mmHg 71%
21:00 +6°C° 0 mm 5 mps 727 mmHg 74%
22:00 +5°C° 0 mm 5 mps 727 mmHg 76%
23:00 +5°C° 0 mm 5 mps 728 mmHg 79%

21 April, Wednesday

Time Temperature Precipitation Wind Pressure Humidity
00:00 +3°C° 0 mm 5 mps 728 mmHg 80%
01:00 +3°C° 0 mm 5 mps 728 mmHg 81%
02:00 +3°C° 0 mm 5 mps 729 mmHg 82%
03:00 +3°C° 0 mm 5 mps 729 mmHg 82%
04:00 +4°C° 0 mm 4 mps 729 mmHg 82%
05:00 +3°C° 0 mm 4 mps 729 mmHg 82%
06:00 +5°C° 0 mm 4 mps 730 mmHg 76%
07:00 +6°C° 0 mm 5 mps 730 mmHg 71%
08:00 +7°C° 0 mm 5 mps 731 mmHg 66%
09:00 +9°C° 0 mm 5 mps 731 mmHg 60%
10:00 +10°C° 0 mm 6 mps 731 mmHg 54%
11:00 +11°C° 0 mm 6 mps 732 mmHg 48%
12:00 +13°C° 0 mm 6 mps 732 mmHg 49%
13:00 +13°C° 0 mm 5 mps 732 mmHg 50%
14:00 +13°C° 0 mm 5 mps 732 mmHg 51%
15:00 +13°C° 0 mm 4 mps 732 mmHg 51%
16:00 +13°C° 0 mm 4 mps 733 mmHg 51%
17:00 +14°C° 0 mm 3 mps 733 mmHg 51%
18:00 +12°C° 0.1 mm 3 mps 733 mmHg 58%
19:00 +12°C° 0.1 mm 2 mps 733 mmHg 64%
20:00 +9°C° 0.1 mm 2 mps 734 mmHg 71%
21:00 +9°C° 0 mm 2 mps 734 mmHg 73%
22:00 +8°C° 0 mm 2 mps 734 mmHg 74%
23:00 +8°C° 0 mm 2 mps 734 mmHg 76%
Show more